CZ-4C R/B, 57655

Orbit data source: Space-Track

CZ-4C R/B, 57655 is space debris in SSO originally from a launch on Sun, 20 Aug 2023 UTC launched from the Jiuquan Satellite Launch Center, China (JSC). Debris objects in space refer to the collection of defunct objects orbiting the Earth. Examples of debris include non-operational satellites, rocket bodies, and fragments generated from explosions, collisions, or faulty payload assembly.

Loading next visibility...
Identifier
57655, 2023-123B
Orbit
SSO
Country
Flag of CNCN / PRC
Related business
Manufacturer
SAST
Mission
Spacecraft
Bus & Motor
CZ-4 STAGE 3, Unknown motor
Mass
~1,000 kg wet, ~1,000 kg dry
Launch date (UTC)
2023-08-20 (3 years ago)
Launch vehicle
Unknown
Launch site
Jiuquan Satellite Launch Center, China (JSC)
Object type
Payload
Rocket body
Debris
Shape & HBR
Cyl, 2.5 m
Radar Cross Section
14.536 m², Large (>1 m²)

Expand to show TLE details & history
Last TLE update: 5 hours ago

TLE from 5 hours ago
0 CZ-4C R/B
1 57655U 23123B   26129.94497907  .00007635  00000-0  19242-3 0  9990
2 57655  97.9715 116.9016 0057559 208.2838 151.5278 15.38495461151196
Epoch: 2026-05-09T22:40Z
TLE epoch observation values (Epoch: 2026-05-09T22:40:46.191Z)
Latitude
0.00004°
Longitude
-91.04601°
Altitude
488.266 km
Speed
7.602 km/s
True Right ascension
07h 47m 36s
True Declination
0° 00' 00"
Sunlit
Object was in daylight at epoch
Visualization orbit readout
Latitude
Unknown
Longitude
Unknown
Altitude
Unknown
Speed
Unknown
Apparent Right ascension
Unknown
Apparent Declination
Unknown
Sunlit
N/A
Visualization observer readout
Local Sidereal Time
12:01:53
Azimuth
Unknown
Elevation
Unknown
Doppler factor
Unknown
Orbital elements
Apogee altitude
486.812 km
Perigee altitude
408.236 km
Semi-major axis
6,825.661 km
Eccentricity
0.00576
Inclination
97.9715°
RAAN
116.9016°
Arg. of periapsis
208.2838°
True anomaly
151.84026°
Mean anomaly
151.5278°
Eccentric anomaly
151.68423°
Mean motion
3.84881 °/min
Orbital period
93.54 mins
BSTAR
0.00019242
Loading maneuver chart data...
Computing Atmospheric mass density...
Loading historical data...
Loading historical data...
Loading historical data...
Loading historical data...
Loading historical data...
Loading historical data...
Loading historical data...
Other satellites on launch #123 in the year 2023 (2023-08-20 UTC)

Documentation

Showing up to 5 results
|